Вернуться в каталог

RASSVET-3 18

АктивенPO
NORAD 100084·PAYLOAD·🇷🇺 Russia

Запущен Jul 19, 2026 с Plesetsk Cosmodrome

Loading…

Ближайшие Пролёты (ближайшие 24 часа)

TLE

СвежийSource: Space-Track

Эпоха: Sep 14, 2026, 13:45 UTC

1 A0084U 26165B   26257.57353512 -.00080068  00000-0 -10954-2 0  9990
2 A0084  82.3001 168.0014 0009074 138.2930 221.9018 15.57637079  8937

Отслеживайте RASSVET-3 18 в реальном времени с AllMySat

Download on the App Store